Weather History for KEZF - July, 2013

Change the Weather History Date:

Monday, July 15, 2013

  Actual Average (KNYG) Record (KNYG)
Temperature  
Mean Temperature 82 °F -  
Max Temperature 94 °F 83 °F 96 °F (1997)
Min Temperature 71 °F 65 °F 61 °F (1999)
Cooling Degree Days 18    
Growing Degree Days 32 (Base 50)    
Moisture  
Dew Point 72 °F    
Average Humidity 73    
Maximum Humidity 100    
Minimum Humidity 44    
Precipitation  
Precipitation 0.00 in - - ()
Sea Level Pressure  
Sea Level Pressure 30.26 in    
Wind  
Wind Speed 3 mph (WNW)    
Max Wind Speed 6 mph    
Max Gust Speed -    
Visibility 10 miles    
Events      
Averages and records for this station are not official NWS values.
T = Trace of Precipitation, MM = Missing Value Source: NWS Daily Summary

Daily Weather History Graph

Daily Weather History Graph

Search for Another Location

Airport or City:

Trip Planner

Search our weather history database for the weather conditions in past years. The results will help you decide how hot, cold, wet, or windy it might be!

Date:

Astronomy

Jul. 15, 2013 Rise Set
Actual Time 5:58 AM EDT 8:32 PM EDT
Civil Twilight 5:27 AM EDT 9:03 PM EDT
Nautical Twilight 4:49 AM EDT 9:41 PM EDT
Astronomical Twilight 4:07 AM EDT 10:23 PM EDT
Moon 1:08 PM EDT (7/15) No Moon Set
Length of Visible Light 15h 35m
Length of Day
14h 33m
Waxing Crescent, 45% of the Moon is Illuminated
Jul 15
Waxing Crescent
Jul 15
First Quarter
Jul 22
Full
Jul 29
Last Quarter
Aug 6
New

Hourly Weather History & Observations

Time (EDT) Temp. Heat Index Dew Point Humidity Pressure Visibility Wind Dir Wind Speed Gust Speed Precip Events Conditions
12:15 AM 77.2 °F - 72.1 °F 84% 30.30 in 10.0 mi North - - N/A   Unknown
12:35 AM 76.3 °F - 72.1 °F 87% 30.30 in 10.0 mi North - - N/A   Unknown
12:55 AM 75.6 °F - 72.9 °F 91% 30.30 in 10.0 mi North - - N/A   Unknown
1:15 AM 75.4 °F - 73.4 °F 94% 30.30 in 10.0 mi North - - N/A   Unknown
1:35 AM 74.3 °F - 72.9 °F 95% 30.30 in 10.0 mi North - - N/A   Unknown
1:55 AM 73.6 °F - 73.2 °F 99% 30.30 in 10.0 mi North - - N/A   Unknown
2:15 AM 73.6 °F - 73.4 °F 99% 30.30 in 10.0 mi North - - N/A   Unknown
2:35 AM 72.7 °F - 72.7 °F 100% 30.30 in 10.0 mi North - - N/A   Unknown
2:55 AM 72.5 °F - 72.3 °F 99% 30.30 in 10.0 mi North - - N/A   Unknown
3:15 AM 72.0 °F - 71.8 °F 99% 30.29 in 10.0 mi North - - N/A   Unknown
3:35 AM 72.5 °F - 72.5 °F 100% 30.29 in 10.0 mi North - - N/A   Unknown
3:55 AM 72.5 °F - 72.5 °F 100% 30.29 in 10.0 mi North - - N/A   Unknown
4:15 AM 71.6 °F - 71.6 °F 100% 30.29 in 10.0 mi North - - N/A   Unknown
4:35 AM 71.8 °F - 71.8 °F 100% 30.29 in 10.0 mi North - - N/A   Unknown
4:55 AM 71.6 °F - 71.6 °F 100% 30.30 in 10.0 mi North - - N/A   Unknown
5:15 AM 71.6 °F - 71.6 °F 100% 30.30 in 10.0 mi North - - N/A   Unknown
5:35 AM 71.1 °F - 71.1 °F 100% 30.30 in 10.0 mi North - - N/A   Unknown
5:55 AM 71.2 °F - 71.2 °F 100% 30.30 in 10.0 mi North - - N/A   Unknown
6:15 AM 71.6 °F - 71.6 °F 100% 30.30 in 10.0 mi North - - N/A   Unknown
6:35 AM 71.8 °F - 71.8 °F 100% 30.30 in 10.0 mi North - - N/A   Unknown
6:55 AM 72.0 °F - 72.0 °F 100% 30.30 in 10.0 mi North - - N/A   Clear
7:15 AM 73.4 °F - 72.9 °F 98% 30.31 in 10.0 mi North - - N/A   Clear
7:35 AM 74.5 °F - 73.8 °F 98% 30.31 in 10.0 mi North - - N/A   Clear
7:55 AM 76.1 °F - 74.3 °F 94% 30.30 in 10.0 mi North - - N/A   Clear
8:15 AM 78.3 °F - 75.2 °F 90% 30.30 in 10.0 mi North - - N/A   Clear
8:35 AM 80.6 °F 86.4 °F 75.7 °F 85% 30.31 in 10.0 mi North - - N/A   Clear
8:55 AM 81.7 °F 88.5 °F 75.6 °F 82% 30.31 in 10.0 mi North - - N/A   Unknown
9:15 AM 82.6 °F 88.8 °F 74.1 °F 75% 30.31 in 10.0 mi North - - N/A   Clear
9:35 AM 84.4 °F 91.3 °F 73.6 °F 70% 30.31 in 10.0 mi North - - N/A   Clear
9:55 AM 85.3 °F 92.6 °F 73.8 °F 68% 30.30 in 10.0 mi North - - N/A   Clear
10:15 AM 86.7 °F 95.0 °F 74.1 °F 66% 30.30 in 10.0 mi North - - N/A   Clear
10:35 AM 87.3 °F 94.5 °F 72.9 °F 62% 30.30 in 10.0 mi North - - N/A   Clear
10:55 AM 88.2 °F 95.0 °F 72.3 °F 59% 30.30 in 10.0 mi North - - N/A   Clear
11:15 AM 89.2 °F 96.9 °F 72.5 °F 58% 30.30 in 10.0 mi North - - N/A   Clear
11:35 AM 88.5 °F 95.3 °F 72.1 °F 58% 30.30 in 7.0 mi North - - N/A   Scattered Clouds
11:55 AM 89.6 °F 97.7 °F 73.0 °F 58% 30.29 in 10.0 mi North - - N/A   Scattered Clouds
12:15 PM 90.0 °F 95.9 °F 70.9 °F 53% 30.29 in 10.0 mi North - - N/A   Mostly Cloudy
12:35 PM 91.4 °F 97.3 °F 70.5 °F 50% 30.29 in 10.0 mi North - - N/A   Scattered Clouds
12:55 PM 91.0 °F 95.2 °F 68.0 °F 47% 30.28 in 10.0 mi North - - N/A   Scattered Clouds
1:15 PM 92.1 °F 95.7 °F 67.6 °F 44% 30.27 in 10.0 mi North - - N/A   Scattered Clouds
1:35 PM 92.5 °F 97.4 °F 68.7 °F 46% 30.27 in 10.0 mi North - - N/A   Clear
1:55 PM 92.5 °F 96.9 °F 68.0 °F 45% 30.26 in 10.0 mi North - - N/A   Clear
2:15 PM 92.8 °F 97.6 °F 68.9 °F 45% 30.26 in 10.0 mi North - - N/A   Scattered Clouds
2:35 PM 93.6 °F 99.0 °F 69.3 °F 45% 30.25 in 10.0 mi North - - N/A   Clear
2:55 PM 94.5 °F 101.4 °F 70.7 °F 46% 30.25 in 10.0 mi North - - N/A   Scattered Clouds
3:15 PM 94.1 °F 101.2 °F 71.1 °F 47% 30.25 in 10.0 mi North - - N/A   Scattered Clouds
3:35 PM 94.1 °F 101.2 °F 71.1 °F 47% 30.24 in 10.0 mi North - - N/A   Mostly Cloudy
3:55 PM 94.3 °F 101.0 °F 70.5 °F 46% 30.23 in 10.0 mi North - - N/A   Mostly Cloudy
4:15 PM 91.8 °F 97.0 °F 69.8 °F 48% 30.23 in 10.0 mi North - - N/A   Scattered Clouds
4:35 PM 94.3 °F 101.0 °F 70.5 °F 46% 30.23 in 10.0 mi North - - N/A   Clear
4:55 PM 93.6 °F 99.0 °F 69.3 °F 45% 30.22 in 10.0 mi NNE 4.6 mph - N/A   Scattered Clouds
5:15 PM 93.7 °F 98.8 °F 68.5 °F 44% 30.22 in 10.0 mi Calm Calm - N/A   Scattered Clouds
5:35 PM 94.3 °F 101.0 °F 70.7 °F 46% 30.22 in 10.0 mi NNW 4.6 mph - N/A   Scattered Clouds
5:55 PM 93.7 °F 99.9 °F 69.8 °F 46% 30.21 in 10.0 mi NNE 5.8 mph - N/A   Scattered Clouds
6:15 PM 93.4 °F 99.7 °F 70.2 °F 47% 30.21 in 10.0 mi Calm Calm - N/A   Scattered Clouds
6:35 PM 93.2 °F 99.4 °F 70.0 °F 47% 30.20 in 10.0 mi West 4.6 mph - N/A   Clear
6:55 PM 92.7 °F 98.3 °F 69.4 °F 47% 30.21 in 10.0 mi WNW 3.5 mph - N/A   Clear
7:15 PM 92.3 °F 97.6 °F 69.4 °F 47% 30.20 in 10.0 mi WNW 4.6 mph - N/A   Clear
7:35 PM 91.2 °F 96.5 °F 69.8 °F 49% 30.20 in 10.0 mi WNW 3.5 mph - N/A   Clear
7:55 PM 88.7 °F 98.2 °F 74.8 °F 63% 30.21 in 10.0 mi Calm Calm - N/A   Clear
8:15 PM 86.4 °F 96.0 °F 75.4 °F 70% 30.20 in 10.0 mi Calm Calm - N/A   Clear
8:35 PM 83.3 °F 90.2 °F 74.1 °F 74% 30.20 in 10.0 mi WSW 3.5 mph - N/A   Clear
8:55 PM 82.9 °F 89.1 °F 73.4 °F 73% 30.20 in 10.0 mi Calm Calm - N/A   Clear
9:15 PM 81.5 °F 86.5 °F 73.0 °F 75% 30.21 in 10.0 mi Calm Calm - N/A   Clear
9:35 PM 80.6 °F 85.0 °F 72.9 °F 77% 30.21 in 10.0 mi Calm Calm - N/A   Clear
9:55 PM 79.7 °F - 72.9 °F 80% 30.22 in 10.0 mi Calm Calm - N/A   Clear
10:15 PM 80.1 °F 84.4 °F 73.2 °F 80% 30.22 in 10.0 mi WSW 3.5 mph - N/A   Clear
10:35 PM 81.7 °F 87.3 °F 73.8 °F 77% 30.22 in 10.0 mi Calm Calm - N/A   Clear
10:55 PM 80.6 °F 85.5 °F 73.8 °F 80% 30.22 in 10.0 mi Calm Calm - N/A   Clear
11:15 PM 79.7 °F - 73.9 °F 82% 30.22 in 10.0 mi Calm Calm - N/A   Clear
11:35 PM 81.0 °F 86.0 °F 73.6 °F 78% 30.22 in 10.0 mi Calm Calm - N/A   Clear
11:55 PM 81.1 °F 86.2 °F 73.4 °F 77% 30.22 in 10.0 mi WSW 3.5 mph - N/A   Clear